Regional Weather Roundup
Issued by NWS

Home | Current Version | Previous Version | Graphics & Text | Print | Product List | Glossary On
Versions: 1 2 3 4 5 6 7 8 9 10 11 12 13 14 15 16 17 18 19 20 21 22 23 24 25 26 27 28 29 30 31 32 33 34 35 36 37 38 39 40 41 42 43 44 45 46 47 48 49 50
000
ASUS43 KLMK 160002
RWRKY
KENTUCKY REGIONAL WEATHER ROUNDUP
NATIONAL WEATHER SERVICE LOUISVILLE KY
700 PM EST MON JAN 15 2018

NOTE "FAIR" INDICATES FEW OR NO CLOUDS BELOW 12,000 FEET
WITH NO SIGNIFICANT WEATHER AND/OR OBSTRUCTIONS TO VISIBILITY.

KYZ001>023-026-027-061>063-070>075-160100-
WESTERN AND SOUTH CENTRAL KENTUCKY

CITY           SKY/WX    TMP DP  RH WIND       PRES   REMARKS
PADUCAH        LGT SNOW  26  21  81 N9        30.42R WCI  17
HENDERSON      FLURRIES  20  12  71 NW12      30.43R WCI   8
OWENSBORO      LGT SNOW  21  18  88 NW12      30.42R FOG     WCI   9
HOPKINSVILLE   NOT AVBL
BOWLING GREEN  LGT SNOW  32  30  92 NW6       30.38R FOG     WCI  26
GLASGOW        NOT AVBL
$$

KYZ024-025-028>034-038-045-046-053-160100-
NORTH CENTRAL KENTUCKY

CITY           SKY/WX    TMP DP  RH WIND       PRES   REMARKS
LOUISVILLE/SDF LGT SNOW  30  27  88 SW7       30.35R FOG     WCI  23
LOUISVILLE/LOU LGT SNOW  30  28  92 SW7       30.36R FOG     WCI  23
FORT KNOX      FLURRIES  28  27  94 SW7       30.32S WCI  21
$$

KYZ035>037-039>044-047>052-055>060-089>105-160100-
NORTHEAST KENTUCKY

CITY           SKY/WX    TMP DP  RH WIND       PRES   REMARKS
LEXINGTON      CLOUDY    30  25  81 W12       30.32R WCI  20
COVINGTON      LGT SNOW  27  26  96 W7        30.30R FOG     WCI  19
FRANKFORT      CLOUDY    30  24  78 W5        30.32S WCI  25
$$

KYZ054-064>069-076>088-106>120-160100-
SOUTHEAST KENTUCKY

CITY           SKY/WX    TMP DP  RH WIND       PRES   REMARKS
JACKSON        CLOUDY    36  22  56 S5        30.28R WCI  32
LONDON         CLOUDY    40  23  50 SW15G21   30.31R WCI  32
SOMERSET       NOT AVBL
MIDDLESBORO    FAIR      30  24  78 CALM      30.34S
MONTICELLO     CLOUDY    39  28  64 W18G24    30.34R WCI  30
$$





USA.gov is the U.S. government's official web portal to all federal, state and local government web resources and services.